Flag for Germany Weather past 2 weeks in Waldkraiburg, Bavaria, Germany

Now
51 °F

Passing clouds.


Feels Like: 50 °F
Forecast: 54 / 68 °F
Wind: 3 mph from Southwest

Location: Muenchen Flughafen

Current Time: May 29, 2015 at 3:17:33 AM

Latest Report: May 29, 2015 at 3:00 AM


Visibility: 25 mi

Pressure: 30.00 "Hg

Humidity: 75%

Dew point: 43 °F

Location of WaldkraiburgLocation

Historic Weather in Waldkraiburg — Graph

°F

Waldkraiburg temperature yesterday

Maximum temperature yesterday: 68 °F (at 6:00 PM)
Minimum temperature yesterday: 38 °F (at 5:00 AM)
Average temperature yesterday: 54 °F

Past Weeks' High & Low Weather Summary

 TemperatureHumidityPressure
High74 °F (May 18, 7:00 PM)100% (May 16, 2:00 AM)30.33 "Hg (May 16, 2:00 AM)
Low38 °F (May 28, 5:00 AM)36% (May 28, 7:00 PM)29.69 "Hg (May 18, 8:00 PM)
Average54 °F79%30.05 "Hg
* Reported May 14 2:00 AM — May 29 2:00 AM, Waldkraiburg, Weather by CustomWeather, © 2015

Note: Actual official high and low records may vary slightly from our data, if they occured in-between our weather recording intervals... More about our weather records

Advertising

Waldkraiburg weather history for previous 24 hours

 ConditionsComfort  
Time TempWeatherWind HumidityBarometerVisibility
2:00 AM
Fri, May 29
51 °FOvercast.2 mph80%30.01 "Hg25 mi
1:00 AM52 °FOvercast.1 mph83%30.00 "Hg31 mi
11:00 PM
Thu, May 28
56 °FOvercast.1 mph67%29.99 "Hg31 mi
10:00 PM56 °FPassing clouds.1 mph63%29.98 "Hg37 mi
9:00 PM64 °FOvercast.2 mph41%29.95 "Hg37 mi
8:00 PM65 °FPartly sunny.2 mph40%29.94 "Hg37 mi
7:00 PM68 °FPartly sunny.3 mph36%29.93 "Hg37 mi
6:00 PM68 °FScattered clouds.6 mph38%29.94 "Hg25 mi
5:00 PM67 °FScattered clouds.5 mph40%29.96 "Hg25 mi
4:00 PM66 °FPartly sunny.5 mph39%29.98 "Hg25 mi
3:00 PM65 °FPartly sunny.5 mph46%30.00 "Hg25 mi
2:00 PM63 °FOvercast.2 mph50%30.02 "Hg22 mi
1:00 PM61 °FPartly sunny.5 mph53%30.06 "Hg19 mi
12:00 PM59 °FPartly sunny.3 mph53%30.08 "Hg22 mi
11:00 AM58 °FPartly sunny.5 mph60%30.09 "Hg22 mi
10:00 AM54 °FPartly sunny.3 mph67%30.11 "Hg19 mi
9:00 AM50 °FPartly sunny.2 mph74%30.14 "Hg16 mi
8:00 AM47 °FScattered clouds.2 mph83%30.14 "Hg16 mi
7:00 AM42 °FScattered clouds.1 mph87%30.16 "Hg12 mi
6:00 AM40 °FFog.No wind86%30.17 "Hg12 mi
5:00 AM38 °FFog.No wind98%30.19 "Hg9 mi
4:00 AM40 °FPassing clouds.No wind97%30.18 "Hg9 mi
3:00 AM41 °FOvercast.1 mph96%30.19 "Hg9 mi
Weather by CustomWeather, © 2015

See weather overviewHow to use our weather pages